When you browse on this site, cookies collect data to enhance your experience and personalize the content and advertising you see.
Visit our Privacy Policy to learn more. By continuing to use the site, you agree to this use of cookies and data.

Hourly Weather Caracas

Today, 10 July, Friday

Time Temperature Precipitation Wind Pressure Humidity
00:00 +16°C° 0 mm 2 mps 650 mmHg 92%
01:00 +16°C° 0 mm 2 mps 649 mmHg 93%
02:00 +16°C° 0 mm 2 mps 649 mmHg 93%
03:00 +16°C° 0 mm 2 mps 649 mmHg 93%
04:00 +16°C° 0 mm 2 mps 649 mmHg 94%
05:00 +16°C° 0 mm 2 mps 649 mmHg 94%
06:00 +17°C° 0 mm 2 mps 649 mmHg 91%
07:00 +18°C° 0 mm 2 mps 650 mmHg 88%
08:00 +19°C° 0 mm 2 mps 650 mmHg 84%
09:00 +21°C° 0 mm 2 mps 651 mmHg 75%
10:00 +22°C° 0 mm 3 mps 651 mmHg 66%
11:00 +25°C° 0 mm 3 mps 652 mmHg 57%
12:00 +25°C° 0.1 mm 3 mps 651 mmHg 57%
13:00 +26°C° 0.1 mm 3 mps 651 mmHg 57%
14:00 +26°C° 0.1 mm 3 mps 651 mmHg 57%
15:00 +25°C° 0.4 mm 3 mps 650 mmHg 63%
16:00 +24°C° 0.4 mm 3 mps 649 mmHg 68%
17:00 +24°C° 0.4 mm 3 mps 649 mmHg 74%
18:00 +21°C° 0.4 mm 3 mps 649 mmHg 80%
19:00 +20°C° 0.4 mm 3 mps 649 mmHg 86%
20:00 +18°C° 0.4 mm 3 mps 649 mmHg 93%
21:00 +18°C° 0.1 mm 3 mps 649 mmHg 93%
22:00 +18°C° 0.1 mm 3 mps 650 mmHg 94%
23:00 +17°C° 0.1 mm 2 mps 650 mmHg 95%

Tomorrow, 11 July, Saturday

Time Temperature Precipitation Wind Pressure Humidity
00:00 +17°C° 0 mm 2 mps 649 mmHg 95%
01:00 +17°C° 0 mm 2 mps 649 mmHg 94%
02:00 +17°C° 0 mm 2 mps 649 mmHg 94%
03:00 +17°C° 0 mm 2 mps 648 mmHg 94%
04:00 +17°C° 0 mm 2 mps 648 mmHg 94%
05:00 +16°C° 0 mm 2 mps 648 mmHg 94%
06:00 +17°C° 0.3 mm 2 mps 649 mmHg 93%
07:00 +18°C° 0.3 mm 2 mps 649 mmHg 93%
08:00 +18°C° 0.3 mm 2 mps 650 mmHg 92%
09:00 +19°C° 0.2 mm 2 mps 650 mmHg 89%
10:00 +20°C° 0.2 mm 2 mps 650 mmHg 85%
11:00 +21°C° 0.2 mm 2 mps 651 mmHg 82%
12:00 +23°C° 0.3 mm 2 mps 650 mmHg 78%
13:00 +24°C° 0.3 mm 3 mps 650 mmHg 74%
14:00 +25°C° 0.3 mm 3 mps 650 mmHg 70%
15:00 +24°C° 0.8 mm 3 mps 649 mmHg 74%
16:00 +24°C° 0.8 mm 3 mps 649 mmHg 78%
17:00 +23°C° 0.8 mm 2 mps 648 mmHg 82%
18:00 +21°C° 0.1 mm 2 mps 648 mmHg 86%
19:00 +20°C° 0.1 mm 2 mps 648 mmHg 90%
20:00 +18°C° 0.1 mm 2 mps 648 mmHg 94%
21:00 +18°C° 0 mm 2 mps 649 mmHg 94%
22:00 +18°C° 0 mm 2 mps 649 mmHg 95%
23:00 +18°C° 0 mm 2 mps 649 mmHg 95%

Day after tomorrow, 12 July, Sunday

Time Temperature Precipitation Wind Pressure Humidity
00:00 +17°C° 0.1 mm 2 mps 649 mmHg 95%
01:00 +17°C° 0.1 mm 2 mps 648 mmHg 95%
02:00 +17°C° 0.1 mm 2 mps 648 mmHg 95%
03:00 +17°C° 0.1 mm 2 mps 648 mmHg 95%
04:00 +17°C° 0.1 mm 2 mps 648 mmHg 94%
05:00 +17°C° 0.1 mm 2 mps 648 mmHg 94%
06:00 +17°C° 0.1 mm 2 mps 649 mmHg 92%
07:00 +19°C° 0.1 mm 1 mps 649 mmHg 91%
08:00 +20°C° 0.1 mm 1 mps 650 mmHg 89%
09:00 +21°C° 0.3 mm 1 mps 650 mmHg 83%
10:00 +23°C° 0.3 mm 1 mps 651 mmHg 76%
11:00 +24°C° 0.3 mm 1 mps 651 mmHg 70%
12:00 +24°C° 1 mm 1 mps 651 mmHg 75%
13:00 +24°C° 1 mm 2 mps 650 mmHg 79%
14:00 +24°C° 1 mm 2 mps 650 mmHg 84%
15:00 +23°C° 1.1 mm 2 mps 649 mmHg 84%
16:00 +23°C° 1.1 mm 2 mps 649 mmHg 85%
17:00 +21°C° 1.1 mm 2 mps 648 mmHg 85%
18:00 +20°C° 0.2 mm 2 mps 649 mmHg 88%
19:00 +19°C° 0.2 mm 2 mps 649 mmHg 91%
20:00 +18°C° 0.2 mm 2 mps 649 mmHg 94%
21:00 +18°C° 0 mm 2 mps 649 mmHg 94%
22:00 +18°C° 0 mm 2 mps 649 mmHg 94%
23:00 +17°C° 0 mm 2 mps 650 mmHg 94%

13 July, Monday

Time Temperature Precipitation Wind Pressure Humidity
00:00 +17°C° 0 mm 2 mps 649 mmHg 94%
01:00 +17°C° 0 mm 2 mps 649 mmHg 94%
02:00 +17°C° 0 mm 2 mps 649 mmHg 94%
03:00 +17°C° 0 mm 2 mps 649 mmHg 94%
04:00 +16°C° 0 mm 2 mps 649 mmHg 94%
05:00 +16°C° 0 mm 2 mps 649 mmHg 94%
06:00 +17°C° 0 mm 2 mps 649 mmHg 92%
07:00 +19°C° 0 mm 1 mps 650 mmHg 91%
08:00 +20°C° 0 mm 1 mps 650 mmHg 89%
09:00 +21°C° 0 mm 2 mps 651 mmHg 80%
10:00 +24°C° 0 mm 2 mps 651 mmHg 70%
11:00 +25°C° 0 mm 3 mps 652 mmHg 61%
12:00 +26°C° 0.1 mm 3 mps 652 mmHg 60%
13:00 +26°C° 0.1 mm 3 mps 651 mmHg 59%
14:00 +26°C° 0.1 mm 3 mps 651 mmHg 59%
15:00 +25°C° 0.2 mm 3 mps 650 mmHg 62%
16:00 +25°C° 0.2 mm 3 mps 650 mmHg 66%
17:00 +24°C° 0.2 mm 3 mps 649 mmHg 70%
18:00 +21°C° 0 mm 3 mps 649 mmHg 76%
19:00 +19°C° 0 mm 3 mps 649 mmHg 83%
20:00 +18°C° 0 mm 2 mps 649 mmHg 90%
21:00 +17°C° 0 mm 2 mps 649 mmHg 90%
22:00 +17°C° 0 mm 2 mps 650 mmHg 91%
23:00 +16°C° 0 mm 2 mps 650 mmHg 91%

14 July, Tuesday

Time Temperature Precipitation Wind Pressure Humidity
00:00 +16°C° 0 mm 2 mps 649 mmHg 91%
01:00 +16°C° 0 mm 2 mps 649 mmHg 91%
02:00 +16°C° 0 mm 2 mps 649 mmHg 91%
03:00 +16°C° 0 mm 2 mps 649 mmHg 92%
04:00 +16°C° 0 mm 2 mps 649 mmHg 92%
05:00 +16°C° 0 mm 2 mps 649 mmHg 93%
06:00 +17°C° 0 mm 2 mps 649 mmHg 90%
07:00 +18°C° 0 mm 2 mps 650 mmHg 88%
08:00 +19°C° 0 mm 2 mps 651 mmHg 85%
09:00 +21°C° 0 mm 2 mps 651 mmHg 76%
10:00 +24°C° 0 mm 2 mps 652 mmHg 68%
11:00 +26°C° 0 mm 2 mps 652 mmHg 59%
12:00 +26°C° 0.3 mm 2 mps 652 mmHg 61%
13:00 +25°C° 0.3 mm 3 mps 651 mmHg 63%
14:00 +25°C° 0.3 mm 3 mps 651 mmHg 65%
15:00 +24°C° 0.5 mm 2 mps 650 mmHg 70%
16:00 +23°C° 0.5 mm 2 mps 650 mmHg 74%
17:00 +23°C° 0.5 mm 2 mps 649 mmHg 79%
18:00 +20°C° 0.1 mm 2 mps 650 mmHg 83%
19:00 +19°C° 0.1 mm 2 mps 650 mmHg 88%
20:00 +18°C° 0.1 mm 2 mps 650 mmHg 92%
21:00 +17°C° 0 mm 2 mps 650 mmHg 92%
22:00 +17°C° 0 mm 2 mps 650 mmHg 92%
23:00 +17°C° 0 mm 2 mps 650 mmHg 92%

15 July, Wednesday

Time Temperature Precipitation Wind Pressure Humidity
00:00 +16°C° 0 mm 2 mps 650 mmHg 91%
01:00 +16°C° 0 mm 2 mps 649 mmHg 91%
02:00 +16°C° 0 mm 2 mps 649 mmHg 91%
03:00 +16°C° 0 mm 2 mps 649 mmHg 90%
04:00 +16°C° 0 mm 1 mps 649 mmHg 89%
05:00 +18°C° 0 mm 1 mps 649 mmHg 88%
06:00 +18°C° 0 mm 1 mps 649 mmHg 87%
07:00 +19°C° 0 mm 1 mps 650 mmHg 86%
08:00 +20°C° 0 mm 1 mps 650 mmHg 85%
09:00 +20°C° 0 mm 2 mps 651 mmHg 79%
10:00 +21°C° 0 mm 2 mps 651 mmHg 73%
11:00 +24°C° 0 mm 2 mps 652 mmHg 67%
12:00 +24°C° 0.4 mm 2 mps 651 mmHg 68%
13:00 +24°C° 0.4 mm 2 mps 651 mmHg 69%
14:00 +24°C° 0.4 mm 2 mps 651 mmHg 70%
15:00 +24°C° 0.5 mm 2 mps 650 mmHg 73%
16:00 +23°C° 0.5 mm 2 mps 650 mmHg 77%
17:00 +23°C° 0.5 mm 2 mps 649 mmHg 80%
18:00 +20°C° 0.3 mm 2 mps 649 mmHg 85%
19:00 +19°C° 0.3 mm 2 mps 649 mmHg 90%
20:00 +17°C° 0.3 mm 2 mps 649 mmHg 94%
21:00 +17°C° 0 mm 2 mps 649 mmHg 94%
22:00 +17°C° 0 mm 2 mps 649 mmHg 94%
23:00 +16°C° 0 mm 2 mps 649 mmHg 93%
Show more